Вернуться в каталог

STARLINK-11339

АктивенСвязьVLEO
NORAD 61691·PAYLOAD·🇺🇸 United States

Запущен Oct 30, 2024 с Vandenberg Space Force Base

Loading…

Ближайшие Пролёты (ближайшие 24 часа)

TLE

СвежийSource: CelesTrak SupGP

Эпоха: Sep 14, 2026, 15:01 UTC

1 61691C 24195E   26257.62618056  .00013218  00000+0  10893-3 0  2575
2 61691  53.1566 174.9380 0001004  92.6084  40.4131 15.69692104    14

Отслеживайте STARLINK-11339 в реальном времени с AllMySat

Download on the App Store